West Palm Beach, FL

3:55 PM EDT on October 16, 2019 (GMT -0400)
Palm Beach International

Weather History for KPBI - May, 2019

Change the Weather History Date:

Tuesday, May 28, 2019

  Actual Average Record
Temperature  
Mean Temperature 80 °F 80 °F  
Max Temperature 87 °F 87 °F 94 °F (1928)
Min Temperature 73 °F 73 °F 59 °F (1920)
Degree Days  
Heating Degree Days 0 0  
Month to date heating degree days 0 0  
Since 1 July heating degree days 144 233  
Cooling Degree Days 15 15  
Month to date cooling degree days 420 367  
Year to date cooling degree days 1345 1062  
Growing Degree Days 30 (Base 50)    
Moisture  
Dew Point 67 °F    
Average Humidity 61    
Maximum Humidity 79    
Minimum Humidity 43    
Precipitation  
Precipitation 0.00 in 0.21 in 4.99 in (1976)
Month to date precipitation 5.29 3.84  
Year to date precipitation 21.01 18.04  
Snow  
Snow 0.00 in - - ()
Month to date snowfall 0.0  
Since 1 July snowfall 0.0  
Snow Depth 0.00 in    
Sea Level Pressure  
Sea Level Pressure 29.99 in    
Wind  
Wind Speed 8 mph (ESE)    
Max Wind Speed 15 mph    
Max Gust Speed 24 mph    
Visibility 10 miles    
Events      
T = Trace of Precipitation, MM = Missing Value Source: NWS Daily Summary

Daily Weather History Graph

Daily Weather History Graph

Search for Another Location

Airport or City:

Astronomy

May. 28, 2019 Rise Set
Actual Time 6:28 AM EDT 8:07 PM EDT
Civil Twilight 6:02 AM EDT 8:33 PM EDT
Nautical Twilight 5:31 AM EDT 9:04 PM EDT
Astronomical Twilight 4:58 AM EDT 9:36 PM EDT
Moon 2:57 AM EDT (5/28) 2:54 PM EDT (5/28)
Length of Visible Light 14h 31m
Length of Day
13h 39m
Waning Crescent, 32% of the Moon is Illuminated
May 28
Waning Crescent
Jun 3
New
Jun 10
First Quarter
Jun 17
Full
Jun 25
Last Quarter

Hourly Weather History & Observations

Time (EDT) Temp. Heat Index Dew Point Humidity Pressure Visibility Wind Dir Wind Speed Gust Speed Precip Events Conditions
12:53 AM 79.0 °F - 69.1 °F 72% 30.03 in 10.0 mi ESE 9.2 mph - N/A   Partly Cloudy
1:53 AM 78.1 °F - 69.1 °F 74% 30.01 in 10.0 mi ESE 8.1 mph - N/A   Partly Cloudy
2:53 AM 77.0 °F - 69.1 °F 76% 29.99 in 10.0 mi SE 6.9 mph - N/A   Partly Cloudy
3:53 AM 78.1 °F - 68.0 °F 71% 29.98 in 10.0 mi SE 8.1 mph - N/A   Partly Cloudy
4:53 AM 77.0 °F - 66.9 °F 71% 29.98 in 10.0 mi SE 4.6 mph - N/A   Clear
5:53 AM 77.0 °F - 66.9 °F 71% 29.99 in 10.0 mi Calm Calm - N/A   Scattered Clouds
6:53 AM 73.9 °F - 66.9 °F 79% 30.01 in 10.0 mi NW 3.5 mph - N/A   Scattered Clouds
7:53 AM 79.0 °F - 69.1 °F 72% 30.01 in 10.0 mi Calm Calm - N/A   Scattered Clouds
8:53 AM 81.0 °F 84.1 °F 69.1 °F 67% 30.02 in 10.0 mi ESE 5.8 mph - N/A   Partly Cloudy
9:53 AM 82.9 °F 85.4 °F 66.9 °F 58% 30.02 in 10.0 mi Variable 5.8 mph - N/A   Clear
10:53 AM 84.0 °F 86.3 °F 66.0 °F 55% 30.02 in 10.0 mi Variable 3.5 mph - N/A   Clear
11:53 AM 84.9 °F 87.6 °F 66.9 °F 55% 30.01 in 10.0 mi SE 9.2 mph - N/A   Clear
12:53 PM 84.9 °F 87.1 °F 66.0 °F 53% 30.00 in 10.0 mi East 8.1 mph - N/A   Clear
1:53 PM 87.1 °F 87.8 °F 63.0 °F 44% 30.00 in 10.0 mi East 10.4 mph - N/A   Clear
2:53 PM 86.0 °F 88.2 °F 66.0 °F 51% 29.98 in 10.0 mi East 10.4 mph - N/A   Clear
3:53 PM 86.0 °F 87.6 °F 64.9 °F 49% 29.97 in 10.0 mi East 13.8 mph 24.2 mph N/A   Clear
4:53 PM 84.9 °F 87.6 °F 66.9 °F 55% 29.96 in 10.0 mi East 13.8 mph - N/A   Partly Cloudy
5:53 PM 82.9 °F 85.8 °F 68.0 °F 60% 29.95 in 10.0 mi SE 10.4 mph - N/A   Partly Cloudy
6:53 PM 82.0 °F 85.5 °F 69.1 °F 65% 29.96 in 10.0 mi SE 9.2 mph - N/A   Scattered Clouds
7:53 PM 80.1 °F 82.9 °F 69.1 °F 69% 29.97 in 10.0 mi ESE 10.4 mph - N/A   Scattered Clouds
8:53 PM 80.1 °F 82.7 °F 68.0 °F 67% 29.99 in 10.0 mi ESE 11.5 mph - N/A   Scattered Clouds
9:53 PM 80.1 °F 82.7 °F 68.0 °F 67% 30.00 in 10.0 mi ESE 10.4 mph - N/A   Scattered Clouds
10:53 PM 79.0 °F - 66.9 °F 66% 30.00 in 10.0 mi SE 11.5 mph - N/A   Partly Cloudy
11:53 PM 79.0 °F - 68.0 °F 69% 30.00 in 10.0 mi SE 9.2 mph - N/A   Partly Cloudy